Regional Weather Roundup
Issued by NWS

Home | Current Version | Previous Version | Text Only | Print | Product List | Glossary Off
Versions: 1 2 3 4 5 6 7 8 9 10 11 12 13 14 15 16 17 18 19 20 21 22 23 24 25 26 27 28 29 30 31 32 33 34 35 36 37 38 39 40 41 42 43 44 45 46 47 48 49 50

000
ASUS45 KPSR 200400
RWRAZ

PRELIMINARY ARIZONA REGIONAL HOURLY WEATHER ROUNDUP
NATIONAL WEATHER SERVICE PHOENIX AZ
900 PM MST FRI SEP 19 2014

NOTE: FAIR INDICATES FEW OR NO CLOUDS BELOW 12,000 FEET WITH NO
SIGNIFICANT WEATHER AND/OR OBSTRUCTIONS TO VISIBILITY.

AZZ001>003-036-200500-
NORTHWEST ARIZONA

CITY           SKY/WX    TMP DP  RH WIND       PRES   REMARKS
KINGMAN        CLEAR     74  46  36 SW8       29.97R
$$

AZZ004>008-015-016-018-200500-
NORTH CENTRAL ARIZONA

CITY           SKY/WX    TMP DP  RH WIND       PRES   REMARKS
GRAND CANYON   CLEAR     56  55  97 CALM      30.19R
PRESCOTT       CLEAR     71  52  50 CALM      30.08R
FLAGSTAFF        N/A     55  53  93 MISG      30.23R
PAYSON         CLEAR     70  61  73 N5        30.10R
PAGE           PTCLDY    82  49  31 SW5       29.98R
$$

AZZ009>014-017-200500-
NORTHEAST ARIZONA

CITY           SKY/WX    TMP DP  RH WIND       PRES   REMARKS
WINSLOW        NOT AVBL
SAINT JOHNS    CLOUDY    77  49  37 N5        30.08R
WINDOW ROCK    CLEAR     60  46  59 CALM      30.17R
$$

AZZ023-200500-
GREATER PHOENIX AREA

CITY           SKY/WX    TMP DP  RH WIND       PRES   REMARKS
PHOENIX        PTCLDY    91  56  30 SW3       29.77R
LUKE AFB       CLEAR     88  64  44 SW5       29.77R
DEER VALLEY    CLEAR     89  57  33 SW3       29.80R
SCOTTSDALE     CLEAR     90  58  33 CALM      29.82R
CHANDLER       PTCLDY    88  61  40 W7        29.79R
$$

AZZ027-028-200500-
SOUTHWEST MARICOPA COUNTY AND PINAL COUNTY

CITY           SKY/WX    TMP DP  RH WIND       PRES   REMARKS
CASA GRANDE    PTCLDY    86  57  37 CALM      29.82R
GILA BEND      CLEAR     90  59  35 S1        29.78R
$$

AZZ503-504-507>509-200500-
SOUTHEAST ARIZONA

CITY           SKY/WX    TMP DP  RH WIND       PRES   REMARKS
TUCSON         CLEAR     82  67  60 CALM      29.93R
DAVIS-MONTHAN  CLEAR     78  68  70 S6        29.91R
NOGALES        PTCLDY    70  64  81 E6        30.01R
SIERRA VISTA   PTCLDY    70  64  83 W8        30.07R
SAFFORD        CLEAR     79  66  64 NW8       29.91R
$$

AZZ020-021-025-026-031-200500-
SOUTHWEST ARIZONA

CITY           SKY/WX    TMP DP  RH WIND       PRES   REMARKS
YUMA           CLEAR     93  61  34 S9        29.73R
$$

CAZ031-033-041-043-047-048-061-200500-
SOUTHERN CALIFORNIA

CITY           SKY/WX    TMP DP  RH WIND       PRES   REMARKS
DOWNTOWN L.A.  CLEAR     70  61  73 W3        29.86R
L.A. AIRPORT   CLEAR     68  62  81 W9        29.88R
SAN DIEGO      MOCLDY    72  62  71 NW9       29.89R
BURBANK        CLEAR     71  59  65 S5        29.87R
ONTARIO        PTCLDY    71  60  68 SW8       29.87R
RIVERSIDE      CLEAR     71  60  68 W5        29.88R
PALM SPRINGS   CLEAR     89  56  32 NW14      29.77R
EL CENTRO NAS  CLEAR     84  56  38 E5        29.71R
IMPERIAL       CLEAR     91  54  28 NE5       29.70R
BLYTHE         CLEAR     92  45  19 SW9       29.74R
$$

NVZ020-UTZ003-200500-
SOUTHERN NEVADA-UTAH

CITY           SKY/WX    TMP DP  RH WIND       PRES   REMARKS
LAS VEGAS      NOT AVBL
SALT LAKE CITY PTCLDY    67  55  65 E3        30.06R
$$

NMZ009-TXZ055-200500-
NEW MEXICO-WEST TEXAS

CITY           SKY/WX    TMP DP  RH WIND       PRES   REMARKS
ALBUQUERQUE    PTCLDY    71  56  58 SE5       30.08R
EL PASO        PTCLDY    76  64  66 CALM      29.99R
$$


........................KEY........................
SKY/WX - SKY CONDITION/WEATHER
TMP    - TEMPERATURE IN FAHRENHEIT
DP     - DEW POINT IN FAHRENHEIT
RH     - RELATIVE HUMIDITY IN PERCENT
WIND   - DIRECTION AND SPEED IN MILES PER HOUR (MPH)
VRB    - VARIABLE WIND DIRECTION
PRES   - MEAN SEA LEVEL PRESSURE IN INCHES OF MERCURY
         F - FALLING PRESSURE   R - RISING PRESSURE
         S - STEADY PRESSURE
VSB    - VISIBILITY IN MILES
HX     - HEAT INDEX IN FAHRENHEIT
WCI    - WIND CHILL INDEX IN FAHRENHEIT
TC     - TEMPERATURE IN CELSIUS WHICH IS ALSO KNOWN AS
         TEMPERATURE IN CENTIGRADE
AFB    - AIR FORCE BASE
         LUKE AFB IS LUKE AIR FORCE BASE
         DAVIS-MONTHAN IS DAVIS-MONTHAN AIR FORCE BASE
NAS    - NAVAL AIR STATION
         EL CENTRO NAS IS EL CENTRO NAVAL AIR STATION
N/A    - NOT AVAILABLE



USA.gov is the U.S. government's official web portal to all federal, state and local government web resources and services.